Regional Weather Roundup
Issued by NWS Midland/Odessa, TX

Skip options and go directly to product.
Home | Oldest Version | Previous Version | Current Version | All | Graphics & Text | Save Text | Print | Product List | Glossary On

Skip product version selection by date and time.   
284
ASUS44 KMAF 291010
RWRMAF
MIDLAND AREA WEATHER ROUNDUP
NATIONAL WEATHER SERVICE MIDLAND TX
500 AM CDT TUE JUL 29 2014

...IN SOUTHWEST TEXAS AND SOUTHEAST NEW MEXICO...

CITY           SKY/WX    TMP DP  RH WIND       PRES   REMARKS
ALPINE         CLEAR     70  57  64 SW7       30.28F
ANDREWS        FAIR      73  63  70 SE6       30.18F
ARTESIA        CLOUDY    77  63  61 E3        30.20S
BIG SPRING     CLEAR     77  63  60 E5        30.18S
CARLSBAD       PTCLDY    76  62  62 CALM      30.16R
DRYDEN           N/A     80  60  50 NE5       30.10S
FORT STOCKTON  CLEAR     76  57  51 S7        30.15S
GUAD PASS      CLEAR     68  60  75 NE20G33   30.29R
HOBBS          MOCLDY    73  63  68 E9        30.21S
MARFA          PTCLDY    63  55  77 NE3       30.28S
MIDLAND AIRPK  CLEAR     77  65  66 SE6       30.17S
MIDLAND INTL   CLEAR     76  65  68 SE10      30.16S
ODESSA         CLEAR     75  64  68 SE9       30.17S
PECOS          CLEAR     76  61  59 E9        30.12S
PRESIDIO       FAIR      82  56  41 NE9       30.11S
SEMINOLE       CLEAR     71  60  68 E7        30.20F
SNYDER         CLEAR     70  58  65 NE7       30.18F
WINK           CLEAR     78  65  63 E7        30.13S
$$
...OTHER STATIONS IN TEXAS...

CITY           SKY/WX    TMP DP  RH WIND       PRES   REMARKS
ABILENE          N/A     74  60  61 MISG      30.15F
AMARILLO       PTCLDY    63  60  90 SE12      30.23F
AUSTIN         PTCLDY    73  70  90 CALM      30.07R
BROWNSVILLE    CLEAR     76  74  93 S6        30.03S
CORPUS CHRISTI PTCLDY    72  71  97 S6        30.04S
DALLAS FTW     PTCLDY    73  61  65 N5        30.09F
DEL RIO        CLEAR     82  66  58 E7        30.04S
EL PASO        PTCLDY    74  62  66 N14       30.16R
HOUSTON INT    MOCLDY    81  76  84 NW7       30.05R
LUBBOCK        CLOUDY    67  57  70 SE9       30.22F
SAN ANGELO     CLEAR     74  66  76 NE8       30.13S
SAN ANTONIO    PTCLDY    78  66  66 CALM      30.08S
WACO           PTCLDY    74  70  87 NE3       30.08F
WICHITA FALLS  NOT AVBL
$$
...OTHER LOCATIONS IN NEW MEXICO...

CITY           SKY/WX    TMP DP  RH WIND       PRES   REMARKS
ALAMAGORDO     CLOUDY    70  66  88 N6        30.22R
ALBUQUERQUE    MOCLDY    68  61  78 NE10      30.30F
CANNON AFB     CLEAR     66  64  94 SE5       30.28R
CLOVIS         NOT AVBL
HOLLOMAN AFB   CLOUDY    70  68  94 N10       30.20S
ROSWELL        CLOUDY    71  68  90 E5        30.22R
RUIDOSO        LGT RAIN  57  57 100 S6        30.42F
SANTA FE       CLOUDY    61  59  93 CALM      30.36F
TRUTH OR CONSE PTCLDY    69  61  75 E6        30.24S
TUCUMCARI      CLOUDY    70  66  87 SW7       30.25R
$$

USA.gov is the U.S. government's official web portal to all federal, state and local government web resources and services.